Theta_e
294 290 287 290 290 288 284 283 283 286 289 287 287 289 291 287 285 284 281 281 280 281 283 283 283 282 282 282 283 283 284 284 284 283 283 283 281 282 282 283 285 285 285 285
291 288 291 291 290 287 285 283 283 286 287 287 286 285 290 287 287 286 285 282 281 280 281 282 282 282 281 282 282 283 283 284 284 283 282 281 280 280 281 283 283 283 284 283
289 290 291 289 286 285 284 283 282 284 285 285 282 279 285 286 287 287 286 284 282 281 281 280 281 281 280 281 281 282 283 283 283 282 282 281 280 279 278 279 280 281 282 282
289 289 289 286 285 286 282 286 284 284 281 277 281 277 280 282 283 285 285 280 281 280 281 280 280 281 281 281 281 282 282 282 283 281 280 278 276 276 277 278 279 279 280 280
291 287 286 285 286 287 285 285 282 281 280 277 278 275 278 279 281 284 283 282 281 281 281 280 280 282 282 282 280 280 281 281 282 280 279 278 276 277 277 277 277 277 279 280
289 288 287 287 286 287 287 283 281 278 276 272 276 277 276 278 281 282 281 283 280 280 279 280 281 282 281 280 280 280 279 280 281 279 278 277 275 275 275 275 275 276 277 278
285 286 285 288 284 286 284 281 277 274 271 274 275 273 282 285 283 282 282 281 280 280 279 279 279 280 280 279 279 280 279 278 279 278 276 275 275 274 274 274 275 275 275 276
284 283 285 287 286 285 282 283 278 271 271 277 274 275 280 282 279 279 280 282 280 279 279 279 279 279 279 279 279 278 278 277 277 276 275 274 274 274 274 274 274 274 274 275
282 282 283 285 284 285 281 279 282 277 262 267 277 278 282 278 278 276 278 278 277 278 278 279 279 279 278 278 278 277 276 276 275 274 273 272 272 272 272 273 274 274 275 275
288 283 282 281 282 281 281 283 277 276 268 265 275 277 282 280 279 275 275 276 278 278 278 278 278 278 278 278 277 276 275 274 274 273 272 272 272 272 272 272 272 273 274 274
286 285 280 280 280 281 278 278 277 278 277 271 267 279 283 284 281 276 277 278 278 278 278 278 278 278 278 277 275 274 273 273 272 272 271 271 271 271 271 271 272 272 273 273
286 283 278 280 279 279 281 281 281 276 273 273 275 280 280 283 282 278 278 278 278 278 278 277 277 277 276 275 274 273 272 271 271 271 270 270 269 269 269 270 271 272 271 272
286 281 274 279 278 277 276 279 281 279 277 278 275 279 280 279 277 278 277 277 277 277 276 277 276 275 275 274 272 271 270 270 270 269 268 268 268 268 269 269 270 270 270 270
292 283 281 281 281 279 275 277 278 280 277 280 280 282 287 288 286 279 277 276 276 277 277 276 275 274 273 273 271 269 268 269 268 268 267 267 267 268 268 268 269 269 269 268
288 284 282 287 288 282 282 283 276 277 281 279 283 283 286 289 290 289 285 277 276 276 276 275 275 273 272 270 269 269 267 267 267 266 266 266 267 267 267 267 267 267 267 267
282 284 285 283 284 281 280 284 284 282 282 282 283 283 290 292 292 289 279 276 276 277 276 276 276 274 273 272 269 269 266 266 267 265 266 266 266 266 266 266 265 265 265 265
278 281 276 280 279 280 277 283 284 285 287 285 281 285 290 288 281 278 276 276 277 277 277 275 274 273 272 269 269 265 265 266 266 265 264 264 264 263 263 264 263 263 263 263
278 278 279 278 276 273 285 281 284 284 285 286 287 288 289 288 279 279 277 277 277 277 276 274 272 269 269 267 266 265 266 265 265 264 263 263 262 261 261 261 261 261 263 263
287 281 280 278 277 282 284 284 277 278 283 285 285 287 287 277 275 275 276 277 277 276 274 271 269 267 266 265 265 264 264 264 263 262 262 261 261 259 259 258 259 262 262 262
284 286 284 280 276 275 285 275 278 280 276 289 285 285 283 275 272 281 275 275 274 272 271 268 267 267 265 264 264 263 263 262 261 260 260 260 259 257 257 258 260 261 260 262
279 280 279 281 280 281 287 276 279 274 283 281 284 283 276 277 281 277 275 273 273 271 269 267 266 265 264 264 263 262 261 260 260 259 259 258 258 256 257 260 260 260 260 262
279 278 277 280 279 277 279 275 280 287 281 281 279 277 278 277 275 275 274 271 270 268 268 267 265 264 263 263 261 260 260 259 259 258 256 255 254 257 259 258 259 259 260 259
281 285 283 283 283 285 282 289 285 283 281 279 278 277 279 276 275 274 273 271 269 268 267 267 265 263 262 261 260 258 258 258 257 253 251 252 256 257 258 258 258 259 260 260
283 287 284 282 287 286 281 286 281 282 281 280 279 279 278 276 275 274 272 271 269 268 265 263 263 262 259 259 258 256 257 256 249 248 252 256 256 256 258 259 259 259 260 261
291 285 285 285 287 287 288 287 285 283 281 279 279 279 279 277 276 274 272 270 269 267 264 264 263 260 258 258 257 255 254 253 250 252 255 255 256 256 257 259 258 260 262 265
289 288 284 285 292 291 292 290 285 282 281 281 279 278 279 279 276 275 273 270 268 265 263 262 261 259 257 257 256 254 249 248 247 251 254 254 255 255 257 257 257 263 265 266
Wind_Speed
3 4 5 9 7 3 2 4 7 9 6 4 10 16 21 11 11 12 11 13 13 13 8 8 7 6 6 5 3 2 3 4 1 2 4 6 5 5 4 4 6 8 9 10
4 5 5 2 5 3 4 4 9 10 3 6 10 13 19 10 12 21 21 18 16 10 9 9 8 6 3 4 1 3 3 3 2 1 2 1 2 3 4 3 4 6 8 10
7 3 4 4 3 3 5 6 6 9 6 6 9 8 14 4 12 8 12 12 14 16 13 9 9 7 5 4 3 2 4 4 2 3 2 2 4 3 2 5 6 6 10 9
6 1 5 4 5 8 6 5 3 5 5 4 4 13 5 5 13 12 13 14 17 13 9 9 9 8 7 5 4 2 5 5 3 5 3 3 2 5 5 7 8 9 10 10
8 7 6 6 9 8 8 2 2 2 4 4 5 5 7 2 10 17 15 19 17 16 14 11 10 8 7 5 4 2 5 6 5 5 4 4 5 6 7 7 12 12 10 10
6 1 6 8 2 5 4 2 3 4 3 3 6 8 5 7 9 7 5 16 16 16 11 10 8 8 5 3 2 2 5 5 6 5 6 6 7 8 9 10 10 10 10 10
1 5 1 3 3 2 4 5 5 7 3 10 3 4 15 11 11 9 8 12 15 14 12 10 9 7 6 5 4 3 4 7 6 6 6 6 7 8 9 9 9 12 11 11
5 10 9 6 7 7 6 8 8 7 5 10 1 12 9 5 6 7 8 9 11 13 11 10 9 8 7 6 5 3 5 7 6 6 7 6 7 6 7 9 10 10 11 12
7 9 1 2 1 2 5 5 1 3 3 4 7 10 8 5 8 3 6 9 14 15 14 11 8 8 7 6 5 3 5 6 6 6 6 7 6 7 10 12 12 11 13 13
6 6 1 2 1 3 4 6 5 3 2 7 9 15 18 8 11 5 7 12 14 12 11 9 8 7 6 6 3 3 5 7 6 7 5 8 8 9 10 11 14 15 15 17
6 4 3 3 9 12 3 4 2 3 6 7 3 18 8 9 11 12 15 14 15 16 14 10 8 7 6 3 2 5 6 7 9 7 9 9 9 10 11 12 14 15 16 17
8 6 7 16 0 1 3 11 14 7 8 4 4 29 6 9 9 11 14 14 13 12 11 9 8 7 5 4 4 6 5 6 8 8 9 10 10 11 11 12 14 15 17 17
10 5 2 6 2 2 7 8 6 2 2 20 11 23 3 3 1 9 9 10 12 12 11 8 7 7 5 5 5 5 5 7 8 9 9 11 11 11 12 14 15 16 17 18
15 8 11 18 11 7 7 11 12 15 12 21 30 32 40 27 24 10 10 11 14 16 14 10 7 6 5 5 5 5 6 6 8 9 10 11 12 13 14 15 16 16 17 19
11 18 9 24 23 5 7 17 14 20 29 19 36 32 34 30 29 16 16 13 14 16 16 11 8 7 6 4 4 5 6 6 7 9 9 10 13 14 15 16 17 17 18 18
4 15 11 21 10 5 11 30 19 24 27 25 33 40 37 35 26 21 11 15 17 16 13 11 9 7 4 3 5 6 5 6 8 8 10 13 13 14 15 16 17 18 18 18
9 8 5 23 5 5 17 25 25 28 29 23 29 40 35 27 13 9 8 13 18 17 15 12 9 7 4 3 4 5 6 7 7 10 10 11 13 14 15 17 17 17 18 18
8 6 5 6 4 14 22 5 9 20 26 22 25 32 23 21 2 3 11 15 14 15 14 10 8 6 4 3 3 4 6 6 8 8 9 11 14 14 15 16 17 18 16 18
15 9 8 10 14 19 30 11 10 10 32 18 27 29 25 4 3 7 7 11 16 13 12 9 7 5 5 3 1 4 5 6 8 9 12 13 14 15 16 16 18 17 17 18
13 13 16 9 11 20 33 4 7 8 17 21 23 24 12 9 4 12 11 9 10 11 11 10 8 6 5 2 1 4 6 7 8 12 14 13 13 13 15 17 17 16 16 18
6 8 23 23 21 9 18 10 7 6 23 3 13 13 15 13 9 6 16 9 11 12 12 10 8 6 4 3 4 5 5 7 9 11 12 13 13 13 14 15 15 15 16 16
16 12 9 11 14 21 15 6 19 18 4 6 5 8 15 7 9 16 17 17 16 15 13 11 8 7 6 4 4 5 6 8 9 11 12 12 12 11 11 14 13 14 14 15
12 21 13 13 10 4 17 27 24 5 8 8 9 8 13 12 9 17 16 18 16 16 12 9 8 8 5 5 5 4 6 9 10 10 10 10 11 10 12 13 14 12 13 13
11 9 12 6 24 24 18 18 6 11 7 5 5 13 16 15 16 14 14 13 13 12 11 8 9 8 6 3 4 4 6 8 5 8 10 9 10 11 11 9 10 11 12 14
17 17 21 18 21 9 18 25 21 16 6 6 7 10 18 16 17 16 13 13 12 12 11 9 9 8 6 4 4 4 6 6 7 7 8 8 8 9 11 11 10 11 11 17
13 19 18 20 32 21 33 17 21 19 20 17 16 12 14 18 19 15 13 13 13 13 11 10 9 9 7 4 4 3 3 3 4 7 7 6 7 8 9 9 11 17 22 26
Wind_Direction
29 60 246 235 207 191 205 225 244 261 233 250 234 253 269 209 217 222 203 202 205 203 201 174 166 161 121 109 83 313 306 303 317 271 347 8 356 326 329 316 326 331 324 324
25 233 221 163 148 184 217 270 269 281 280 187 266 249 268 187 221 215 210 202 201 192 184 178 178 169 131 157 205 297 322 315 304 353 1 14 298 272 281 292 308 303 316 310
174 224 117 161 184 220 221 196 244 239 331 278 312 259 244 233 249 232 220 205 205 194 184 182 186 177 159 181 222 289 317 310 306 357 337 323 285 283 289 318 309 306 309 305
229 231 196 197 240 158 273 208 259 288 345 258 32 291 260 237 257 223 215 198 200 186 185 181 183 181 182 199 210 266 332 322 309 351 342 335 289 309 305 304 298 299 314 310
240 172 193 207 218 159 223 106 225 232 253 325 218 255 256 66 270 255 219 212 200 187 185 182 182 182 190 184 211 263 318 313 311 323 315 303 298 294 303 298 300 317 314 304
247 353 175 215 156 166 112 43 50 52 48 312 234 194 239 194 215 254 221 211 191 184 179 179 181 174 196 204 225 288 318 306 301 311 303 283 281 299 301 304 314 309 305 301
254 219 249 173 134 92 98 70 327 329 355 234 166 238 254 246 246 235 235 201 197 178 176 177 174 184 209 224 234 291 323 300 301 291 289 285 271 267 282 298 299 296 298 302
212 287 176 183 201 182 170 165 165 242 234 283 89 244 254 238 287 288 266 206 181 176 178 180 183 192 207 224 223 287 307 289 284 285 285 275 266 281 287 286 289 288 289 291
169 266 153 187 134 142 172 179 170 74 90 357 245 283 288 285 283 292 204 166 186 185 184 182 184 192 202 214 225 271 287 275 280 279 273 278 281 293 291 287 288 288 285 288
205 283 176 127 132 30 154 157 79 14 254 266 263 277 253 245 261 183 219 211 198 187 186 186 186 191 204 197 236 292 272 270 293 295 292 303 296 288 289 292 292 289 290 292
138 159 203 130 206 177 132 211 131 149 164 200 296 274 193 199 214 197 215 213 199 197 187 183 188 190 195 185 275 287 292 322 316 312 302 294 296 299 296 289 292 292 291 291
206 159 203 215 268 325 244 202 174 180 228 249 154 261 174 187 221 182 213 208 203 199 186 180 182 180 182 230 267 284 323 301 299 297 296 300 303 297 293 292 292 293 292 292
175 230 293 321 28 345 224 209 216 100 120 235 211 262 121 360 171 215 220 207 202 190 179 178 174 178 201 224 267 295 292 288 297 303 304 300 298 302 301 301 299 300 297 294
158 193 179 228 217 130 187 214 205 204 232 247 244 261 269 267 268 233 218 202 199 192 182 180 176 181 196 219 252 291 289 281 296 302 296 304 309 314 311 306 304 302 300 295
176 236 195 245 254 203 220 238 187 208 228 233 260 259 265 271 270 270 233 203 188 187 186 178 168 180 198 236 266 273 268 292 298 291 305 315 320 317 310 310 307 303 299 295
194 239 231 255 251 205 267 258 238 232 245 253 256 266 267 268 282 275 217 191 190 194 179 169 169 164 179 222 274 288 291 286 311 312 325 325 319 315 312 310 309 306 302 300
168 188 147 250 111 71 271 256 240 248 244 236 248 248 262 274 242 226 198 192 195 186 172 168 163 161 177 221 279 278 294 303 329 331 323 316 318 313 316 313 309 308 306 302
185 159 157 236 92 228 257 163 217 235 247 225 242 252 249 253 315 268 194 187 185 172 157 151 150 154 184 193 244 281 316 335 335 326 319 324 321 318 318 312 310 308 305 306
197 172 213 218 219 264 288 226 177 170 269 207 225 246 251 127 62 255 195 180 175 159 149 139 131 144 159 164 266 312 334 342 340 333 333 327 322 320 316 310 310 310 311 308
210 234 220 199 231 232 252 129 142 133 269 263 206 232 209 131 198 251 162 143 130 120 127 133 136 145 141 145 357 11 360 353 344 340 327 321 318 311 308 306 309 314 306 306
177 207 219 227 236 245 258 161 158 150 255 138 189 203 157 190 204 151 139 130 131 129 130 126 139 138 148 96 37 32 358 357 336 330 322 319 313 307 298 307 311 311 311 311
183 180 207 229 241 247 145 77 192 222 167 165 182 174 185 163 138 150 150 141 142 142 146 148 146 142 113 82 54 23 7 347 338 334 320 313 306 304 311 311 313 315 314 313
207 205 201 206 210 221 188 218 217 174 166 198 172 179 179 148 157 157 155 153 155 151 148 144 143 128 111 73 62 21 357 347 339 326 303 298 307 315 315 320 322 322 322 323
226 181 221 203 242 236 220 226 209 195 205 168 180 166 164 159 155 157 152 155 150 147 144 150 142 127 115 90 71 48 10 348 329 299 304 322 324 327 323 323 326 323 327 326
203 155 211 242 259 259 253 220 210 204 163 157 155 166 171 156 164 155 158 160 151 145 144 149 136 131 122 107 85 55 19 349 327 314 323 331 326 335 322 329 327 331 332 337
190 200 193 220 230 214 242 206 197 191 190 193 167 162 184 161 158 162 158 154 151 150 146 140 132 126 123 115 81 51 7 329 308 329 334 335 332 335 324 326 326 337 345 345